SAM423 KADW-KMIA

Flight info

Callsign SAM423
Flight time N/A
Altitude 36000
Route RYVRR KOHLS SKARP Y313 HOAGG
Aircraft B752/M-VGDW/C

Departure

Time 2026-04-29 00:40
Airport Joint Base Andrews (KADW)

Arrival

Time N/A
Airport Miami International Airport (KMIA)
Time Latitude Longitude Altitude Speed Heading
2026-04-29 00:22 38.81334 -76.87734 289 ft 0 kts 360°
2026-04-29 00:35 38.81336 -76.87734 289 ft 0 kts 360°
2026-04-29 00:35 38.81338 -76.87734 289 ft 0 kts 360°
2026-04-29 00:35 38.81368 -76.87734 289 ft 11 kts
2026-04-29 00:36 38.81392 -76.87705 289 ft 7 kts 78°
2026-04-29 00:36 38.81394 -76.87629 289 ft 8 kts 90°
2026-04-29 00:36 38.81395 -76.87529 289 ft 11 kts 90°
2026-04-29 00:36 38.81408 -76.87464 289 ft 8 kts 43°
2026-04-29 00:37 38.81475 -76.87450 289 ft 14 kts 357°
2026-04-29 00:37 38.81570 -76.87452 289 ft 12 kts 359°
2026-04-29 00:37 38.81641 -76.87451 289 ft 8 kts
2026-04-29 00:37 38.81728 -76.87450 289 ft 22 kts
2026-04-29 00:38 38.81915 -76.87452 289 ft 28 kts 359°
2026-04-29 00:38 38.82101 -76.87453 289 ft 25 kts
2026-04-29 00:38 38.82245 -76.87452 289 ft 14 kts
2026-04-29 00:38 38.82308 -76.87373 289 ft 14 kts 82°
2026-04-29 00:39 38.82312 -76.87249 289 ft 13 kts 90°
2026-04-29 00:39 38.82312 -76.87167 289 ft 14 kts 89°
2026-04-29 00:39 38.82291 -76.87082 289 ft 7 kts 147°
2026-04-29 00:39 38.82242 -76.87071 289 ft 8 kts 178°
2026-04-29 00:40 38.82179 -76.87070 289 ft 13 kts 180°
2026-04-29 00:40 38.81800 -76.87067 289 ft 101 kts 180°
2026-04-29 00:40 38.80837 -76.87067 399 ft 173 kts 178°
2026-04-29 00:40 38.79469 -76.87054 919 ft 223 kts 178°
2026-04-29 00:41 38.77796 -76.87021 1653 ft 254 kts 178°
2026-04-29 00:41 38.76061 -76.86944 2726 ft 253 kts 179°
2026-04-29 00:41 38.74243 -76.86732 3196 ft 277 kts 173°
2026-04-29 00:41 38.72356 -76.86329 4073 ft 284 kts 173°
2026-04-29 00:42 38.70467 -76.85896 5131 ft 283 kts 173°
2026-04-29 00:42 38.68539 -76.85464 6068 ft 286 kts 172°
2026-04-29 00:42 38.66541 -76.85017 6798 ft 296 kts 173°
2026-04-29 00:42 38.64509 -76.84559 7592 ft 304 kts 172°
2026-04-29 00:43 38.62421 -76.84091 8493 ft 306 kts 173°
2026-04-29 00:43 38.60313 -76.83617 9349 ft 311 kts 172°
2026-04-29 00:43 38.58142 -76.83131 10051 ft 320 kts 173°
2026-04-29 00:43 38.55921 -76.82629 10781 ft 329 kts 173°
2026-04-29 00:44 38.53630 -76.82117 11350 ft 342 kts 173°
2026-04-29 00:44 38.51218 -76.81580 11903 ft 356 kts 173°
2026-04-29 00:44 38.48733 -76.81022 12385 ft 371 kts 173°
2026-04-29 00:44 38.46161 -76.80446 13010 ft 380 kts 173°
2026-04-29 00:45 38.43562 -76.79864 13902 ft 380 kts 173°
2026-04-29 00:45 38.40942 -76.79275 14759 ft 380 kts 173°
2026-04-29 00:45 38.38337 -76.78696 15407 ft 385 kts 173°
2026-04-29 00:45 38.35692 -76.78107 16079 ft 389 kts 174°
2026-04-29 00:46 38.33009 -76.77509 16731 ft 393 kts 173°
2026-04-29 00:46 38.30284 -76.76902 17393 ft 396 kts 174°
2026-04-29 00:46 38.27571 -76.76297 18054 ft 398 kts 174°
2026-04-29 00:46 38.24844 -76.75690 18615 ft 403 kts 174°
2026-04-29 00:47 38.22026 -76.75064 19164 ft 409 kts 174°
2026-04-29 00:47 38.19210 -76.74440 19816 ft 411 kts 174°
2026-04-29 00:47 38.16401 -76.73815 20355 ft 417 kts 175°
2026-04-29 00:47 38.13510 -76.73173 20962 ft 420 kts 175°
2026-04-29 00:48 38.10620 -76.72534 21517 ft 425 kts 175°
2026-04-29 00:48 38.07667 -76.71882 22203 ft 426 kts 175°
2026-04-29 00:48 38.04722 -76.71310 22651 ft 430 kts 181°
2026-04-29 00:48 38.01738 -76.71302 23120 ft 428 kts 190°
2026-04-29 00:49 37.98763 -76.71577 23616 ft 433 kts 189°
2026-04-29 00:49 37.95732 -76.71851 24162 ft 435 kts 191°
2026-04-29 00:49 37.92709 -76.72139 24690 ft 438 kts 191°
2026-04-29 00:49 37.89630 -76.72440 25172 ft 442 kts 191°
2026-04-29 00:50 37.86579 -76.72738 25623 ft 446 kts 192°
2026-04-29 00:50 37.83448 -76.73046 26064 ft 451 kts 192°
2026-04-29 00:50 37.80328 -76.73357 26522 ft 454 kts 193°
2026-04-29 00:50 37.77172 -76.73667 27054 ft 455 kts 192°
2026-04-29 00:51 37.74011 -76.73983 27358 ft 462 kts 193°
2026-04-29 00:51 37.70782 -76.74299 27853 ft 464 kts 193°
2026-04-29 00:51 37.67540 -76.74618 28329 ft 466 kts 193°
2026-04-29 00:51 37.64325 -76.74934 28715 ft 469 kts 194°
2026-04-29 00:52 37.61062 -76.75259 29193 ft 470 kts 194°
2026-04-29 00:52 37.57764 -76.75583 29531 ft 475 kts 194°
2026-04-29 00:52 37.54447 -76.75909 29895 ft 479 kts 194°
2026-04-29 00:52 37.52288 -76.76122 30274 ft 482 kts 192°
2026-04-29 00:53 37.48933 -76.76459 30711 ft 481 kts 194°
2026-04-29 00:53 37.45591 -76.76774 31131 ft 480 kts 194°
2026-04-29 00:53 37.42268 -76.77098 31425 ft 483 kts 195°
2026-04-29 00:53 37.38864 -76.77436 31716 ft 487 kts 195°
2026-04-29 00:54 37.35484 -76.77771 32011 ft 490 kts 195°
2026-04-29 00:54 37.32078 -76.78102 32524 ft 488 kts 195°
2026-04-29 00:54 37.28732 -76.78422 33381 ft 478 kts 195°
2026-04-29 00:54 37.25452 -76.78738 33968 ft 474 kts 195°
2026-04-29 00:55 37.22153 -76.79067 34403 ft 476 kts 195°
2026-04-29 00:55 37.18866 -76.79388 35113 ft 470 kts 195°
2026-04-29 00:55 37.15646 -76.79697 35874 ft 463 kts 195°
2026-04-29 00:55 37.12477 -76.80001 36184 ft 453 kts 195°
2026-04-29 00:56 37.09311 -76.80315 36083 ft 454 kts 195°
2026-04-29 00:56 37.02948 -76.80942 36132 ft 462 kts 194°
2026-04-29 00:57 36.97602 -76.81454 36121 ft 459 kts 195°